Location: Mason
(37.5237°N, 89.2543°W)
Time: 08:18:33
(UTC+00:00)

MOS 1 Rocket - Pass Details

Date: 24 January 2021
Orbit: 614 x 830 km, 97.4° (Epoch: 08 March)

Event Time Altitude Azimuth Distance (km) Brightness Sun altitude
Rises 23:40:27 0° 20° (NNE) 2,893 6.1 -6.0°
Reaches altitude 10° 23:42:45 10° 29° (NNE) 1,980 5.2 -6.4°
Maximum altitude 23:46:45 38° 98° (E) 946 3.6 -7.1°
Drops below altitude 10° 23:50:47 10° 167° (SSE) 1,997 5.7 -7.9°
Sets 23:53:07 0° 175° (S) 2,921 6.7 -8.3°
